Wind_Speed
29 24 23 24 25 25 23 21 21 20 21 21 20 18 15 13 11 9 8 7 6 5 3 4 5 5 4 2 3 4 6 8 10 11 13 13 14 16 19 20 21 22 24
31 27 26 25 26 25 26 24 23 22 20 20 21 20 18 16 14 13 10 8 7 6 5 4 4 4 3 3 2 2 4 6 8 9 11 12 12 15 18 19 20 21 22
36 31 27 25 26 27 27 27 26 25 23 21 20 18 17 16 16 14 12 11 9 7 5 4 4 5 5 4 3 2 2 2 4 6 9 11 12 12 14 16 18 18 19
38 34 33 28 27 28 29 28 27 26 25 25 22 20 18 16 15 13 13 12 10 8 6 6 4 4 4 5 4 3 2 1 2 3 5 6 8 10 11 14 17 18 18
42 40 37 34 31 29 30 30 29 27 25 25 25 23 21 19 17 16 15 13 11 9 8 7 7 5 5 4 4 5 4 4 4 3 3 4 6 8 9 10 13 15 18
47 44 41 39 35 32 28 29 29 30 29 27 26 25 24 21 20 19 17 15 11 10 9 8 7 6 6 5 4 4 5 5 6 7 7 6 6 6 8 9 11 13 14
54 46 40 39 37 36 32 31 30 31 32 31 28 26 23 24 23 22 20 18 15 11 11 12 9 8 8 8 7 6 5 6 5 6 7 8 7 8 8 8 9 10 12
55 52 44 42 34 33 33 34 35 34 34 33 32 31 27 25 23 23 21 19 17 16 15 14 14 12 11 10 9 9 7 7 7 7 6 7 8 8 9 9 9 8 10
50 54 52 46 45 40 39 38 38 38 36 36 31 33 31 29 25 24 23 22 21 20 19 18 17 16 14 12 12 11 10 9 9 9 8 7 6 7 7 8 10 10 9
56 52 53 46 49 50 48 45 43 41 38 38 37 35 33 31 29 28 27 25 24 23 22 22 20 19 17 15 13 12 11 10 11 11 11 10 9 8 9 8 9 10 11
54 48 59 53 45 49 51 50 47 44 41 40 39 36 34 31 29 30 28 27 25 24 23 22 21 19 19 18 16 15 14 13 11 10 10 9 10 11 11 10 11 10 11
64 61 51 60 52 33 52 52 53 50 45 42 41 38 34 34 34 31 29 27 26 25 24 23 22 19 17 17 15 14 13 13 11 11 12 12 11 11 10 13 13 13 12
54 70 62 53 65 58 45 51 52 50 49 47 44 41 37 36 35 34 32 32 29 27 27 26 24 22 20 18 16 16 15 16 13 12 12 12 13 13 13 13 14 16 15
60 65 52 60 60 66 56 56 54 54 51 47 44 42 40 38 37 35 34 32 30 29 27 25 27 25 23 23 21 20 21 21 19 16 13 14 13 13 14 15 17 18 17
48 60 66 58 56 55 65 51 56 42 45 51 46 45 44 41 41 41 38 37 35 33 30 30 30 30 28 27 25 24 22 22 22 20 18 16 16 16 14 13 15 18 19
53 51 59 68 69 59 60 56 56 56 53 36 47 50 51 49 45 44 41 36 38 37 37 38 36 36 32 30 28 27 25 25 24 23 23 22 21 21 18 17 13 14 18
50 50 49 56 76 55 60 59 56 57 53 60 48 42 52 52 49 48 48 46 37 38 35 34 38 40 39 37 30 28 27 26 27 27 25 26 24 23 20 18 16 13 11
54 52 49 49 46 49 53 55 59 45 57 54 57 58 53 51 53 52 48 50 46 43 41 35 34 33 31 30 28 29 30 29 29 29 27 27 25 22 22 20 17 15 11
56 57 52 51 49 44 41 45 48 46 57 44 56 53 45 40 41 38 37 43 43 41 42 37 33 33 30 28 28 33 33 33 33 30 29 25 25 23 22 22 19 17 16
56 58 58 55 52 49 44 42 40 38 40 41 39 43 41 40 41 42 43 42 44 44 44 40 37 35 35 35 37 37 35 35 34 31 28 26 26 25 24 22 20 18 17
58 58 59 59 60 56 55 52 51 50 47 44 42 43 41 42 44 46 44 45 46 45 47 43 42 42 42 42 42 42 40 37 35 31 30 29 28 27 26 24 24 23 22
60 59 59 59 58 62 59 58 57 56 55 53 51 49 48 48 45 47 47 47 49 47 48 47 49 45 45 45 43 42 40 38 35 34 32 31 30 28 27 28 27 27 26
63 61 61 60 59 58 60 60 59 58 57 56 54 53 52 51 50 50 50 50 50 50 50 49 48 47 46 44 43 42 40 39 37 36 34 32 32 31 30 31 30 30 30
66 65 63 62 61 61 60 59 60 58 58 57 55 54 53 52 51 50 50 50 49 49 49 48 47 47 46 45 43 42 41 40 39 38 37 34 35 34 33 34 33 34 33
63 68 67 66 65 64 63 62 60 60 58 57 56 55 54 53 53 51 50 50 48 49 48 48 48 47 47 46 45 44 43 42 42 40 39 38 38 38 37 38 38 37 36
61 67 69 70 67 67 66 65 64 63 62 61 59 58 57 55 54 54 53 52 51 50 50 50 49 49 48 47 46 45 45 45 44 44 43 43 42 42 42 42 41 41 41
Wind_Direction
206 202 199 202 206 204 204 207 207 203 202 199 202 207 212 213 225 223 221 213 209 197 195 171 164 167 162 126 87 74 64 51 40 36 37 35 31 36 40 38 37 39 43
210 208 204 205 203 208 205 206 209 207 208 208 210 211 212 216 224 231 236 236 231 224 220 192 183 189 196 175 163 91 68 53 49 40 34 36 32 30 34 36 35 33 34
212 213 211 207 206 205 210 209 207 209 209 209 208 214 215 219 222 226 230 233 233 238 242 239 226 216 223 219 210 190 101 71 54 42 39 34 31 33 30 33 36 31 33
213 211 212 210 209 207 209 213 212 209 212 212 211 210 212 217 221 225 230 235 231 233 237 248 248 252 251 266 260 254 264 302 19 30 40 27 33 33 27 29 29 28 26
210 212 213 214 213 213 210 213 214 216 214 216 214 213 210 211 215 220 224 229 231 229 239 254 269 280 287 297 306 303 293 307 320 329 4 4 18 24 25 23 27 26 23
209 210 210 213 213 215 216 216 216 217 217 215 215 216 215 216 217 220 225 227 225 221 231 244 259 272 288 296 298 320 317 310 323 325 331 336 347 359 5 17 14 17 22
210 209 213 215 213 217 220 220 219 219 220 218 217 217 217 218 222 225 229 232 233 236 241 246 247 257 264 280 295 306 310 316 322 326 333 329 330 331 340 350 4 5 5
215 211 207 213 211 216 217 218 218 220 223 222 221 219 218 221 222 227 230 234 237 238 243 255 256 252 256 264 273 281 289 306 316 317 322 326 330 329 327 327 338 348 351
212 214 211 209 204 203 209 214 215 217 219 222 221 222 223 223 224 228 230 233 238 242 245 247 255 261 263 265 268 271 279 282 286 293 302 307 310 318 319 322 319 324 332
212 213 210 203 213 209 209 211 213 215 216 222 222 223 223 225 227 229 231 233 237 241 244 247 246 253 257 260 261 268 271 271 274 278 285 290 298 301 304 308 307 309 314
215 213 213 202 205 220 218 214 213 216 218 222 225 225 226 226 227 230 232 235 236 238 243 245 246 245 251 254 256 259 265 266 267 275 281 281 283 281 286 288 291 292 295
222 215 209 212 194 206 217 217 217 216 216 219 225 227 227 228 230 231 233 235 238 240 243 246 247 240 237 244 249 257 263 260 263 270 277 281 279 280 278 280 282 286 286
231 223 216 221 210 203 199 210 215 218 221 218 222 222 223 229 229 232 232 235 236 238 240 245 241 240 240 233 241 250 255 261 261 267 270 277 280 279 275 268 269 272 279
230 232 214 214 210 221 219 215 211 217 216 220 221 224 222 223 228 230 233 232 230 232 230 234 237 234 237 246 246 249 253 252 255 261 265 277 287 287 277 258 255 256 261
235 222 229 216 214 208 209 221 216 208 223 224 224 219 222 224 226 228 232 233 232 230 232 233 234 236 239 244 250 253 251 250 253 255 267 271 279 284 287 280 266 259 259
229 231 235 237 216 223 222 223 226 231 227 216 231 231 225 224 229 231 229 232 242 240 246 249 239 240 242 244 247 251 253 254 255 260 266 270 276 278 276 278 275 269 262
225 233 238 230 229 222 224 218 213 222 231 228 219 210 221 224 224 229 233 234 229 241 238 235 236 238 245 246 246 255 259 258 258 263 266 269 267 268 264 264 266 265 270
228 228 232 240 227 221 216 212 207 218 214 219 222 225 227 229 229 230 235 237 237 235 238 233 234 235 245 245 247 255 259 262 262 263 265 265 264 258 256 256 257 258 268
229 228 227 235 240 232 229 221 217 220 218 225 226 221 221 228 232 238 241 242 243 247 248 247 246 253 249 252 255 260 261 263 263 262 258 258 256 256 253 252 254 257 266
229 228 227 228 234 240 239 240 242 242 238 234 228 225 225 238 243 243 245 243 244 250 254 252 255 259 258 258 258 259 258 258 260 258 255 251 249 250 251 250 248 252 257
229 228 227 226 227 232 233 236 239 241 245 249 249 250 241 240 240 235 247 245 249 248 253 253 253 251 255 254 253 256 258 257 255 250 247 247 245 246 247 246 249 252 256
228 229 229 228 228 226 231 231 232 234 237 239 240 242 243 243 245 244 244 245 248 248 248 250 252 252 249 251 253 252 251 250 248 245 245 246 246 245 246 248 251 256 260
229 228 229 230 230 230 229 231 231 231 233 235 237 237 237 238 238 238 240 241 243 245 248 249 249 251 252 251 250 250 247 245 243 243 244 245 246 248 251 254 258 262 263
230 230 229 230 231 232 232 232 233 233 234 234 235 236 237 238 238 238 239 240 241 242 243 246 247 248 249 249 248 246 244 242 241 242 243 243 248 251 253 257 259 261 265
231 231 230 230 230 232 233 234 234 235 236 236 237 237 237 238 239 240 240 240 240 241 241 242 244 245 246 246 245 244 242 242 243 242 243 245 247 250 254 257 259 261 262
232 231 232 231 231 231 232 234 235 236 238 238 239 240 240 240 240 241 241 242 242 242 242 243 244 245 245 246 246 245 244 243 244 245 246 246 249 252 254 256 260 262 263
Height
5821 5823 5826 5831 5834 5838 5841 5844 5847 5849 5851 5852 5854 5856 5858 5859 5861 5861 5862 5864 5865 5865 5866 5866 5866 5867 5867 5868 5868 5868 5868 5868 5868 5868 5867 5866 5864 5862 5861 5860 5858 5855 5852
5818 5821 5823 5827 5831 5835 5838 5841 5844 5847 5849 5851 5852 5854 5856 5858 5859 5860 5862 5863 5864 5865 5867 5867 5867 5868 5868 5868 5868 5868 5868 5868 5868 5868 5868 5867 5866 5866 5865 5863 5861 5859 5857
5814 5817 5820 5824 5828 5831 5834 5837 5840 5843 5846 5849 5850 5852 5855 5856 5857 5859 5861 5862 5864 5865 5866 5867 5867 5868 5868 5868 5869 5869 5868 5868 5868 5868 5868 5868 5868 5867 5866 5864 5862 5861 5858
5809 5812 5816 5820 5824 5827 5830 5833 5837 5839 5843 5846 5848 5850 5853 5854 5856 5857 5859 5860 5863 5864 5865 5866 5866 5867 5868 5869 5870 5869 5869 5869 5869 5868 5868 5867 5867 5867 5867 5866 5866 5864 5861
5802 5805 5810 5815 5819 5822 5826 5829 5833 5836 5838 5842 5845 5848 5850 5851 5853 5854 5856 5858 5861 5862 5863 5864 5866 5867 5868 5869 5870 5870 5870 5870 5870 5869 5869 5868 5868 5868 5867 5867 5866 5865 5864
5793 5797 5802 5809 5814 5818 5823 5826 5829 5832 5835 5837 5840 5844 5846 5849 5850 5852 5854 5856 5859 5860 5861 5862 5864 5865 5866 5867 5868 5869 5870 5870 5870 5870 5870 5869 5869 5869 5868 5868 5867 5866 5865
5785 5790 5798 5804 5809 5814 5819 5823 5826 5828 5830 5833 5836 5840 5844 5845 5848 5850 5852 5854 5857 5859 5859 5860 5861 5863 5864 5866 5867 5867 5868 5869 5870 5870 5870 5870 5869 5869 5869 5869 5868 5867 5866
5781 5786 5792 5798 5805 5811 5815 5817 5821 5823 5826 5828 5832 5835 5839 5842 5845 5848 5850 5852 5854 5856 5858 5858 5860 5860 5861 5863 5865 5866 5867 5867 5868 5869 5868 5869 5870 5869 5869 5868 5868 5867 5866
5776 5780 5784 5790 5795 5799 5804 5809 5815 5816 5820 5824 5826 5830 5835 5838 5842 5845 5846 5848 5850 5852 5854 5856 5857 5859 5859 5860 5862 5864 5865 5866 5866 5867 5867 5867 5868 5868 5868 5867 5866 5866 5865
5770 5772 5778 5784 5787 5792 5796 5801 5806 5810 5813 5817 5822 5826 5830 5834 5837 5840 5842 5844 5847 5849 5851 5852 5854 5856 5857 5858 5859 5860 5861 5863 5864 5865 5865 5866 5868 5868 5868 5867 5866 5865 5865
5761 5768 5770 5777 5784 5787 5790 5795 5800 5804 5808 5811 5816 5821 5826 5829 5832 5833 5837 5841 5843 5845 5847 5849 5851 5853 5854 5855 5856 5857 5858 5860 5861 5861 5862 5863 5863 5865 5865 5865 5864 5863 5863
5753 5760 5762 5768 5772 5781 5786 5787 5792 5797 5801 5805 5809 5816 5820 5822 5826 5829 5833 5837 5839 5841 5843 5845 5848 5849 5850 5852 5854 5855 5856 5857 5858 5859 5859 5860 5861 5862 5862 5863 5862 5862 5861
5742 5752 5757 5759 5766 5769 5771 5780 5784 5789 5794 5798 5803 5808 5813 5817 5820 5824 5827 5831 5833 5836 5839 5840 5843 5846 5846 5848 5850 5852 5853 5855 5856 5857 5856 5857 5857 5858 5859 5860 5860 5860 5861
5735 5740 5746 5753 5756 5760 5766 5770 5776 5782 5787 5791 5795 5800 5805 5810 5814 5818 5821 5825 5828 5830 5833 5836 5838 5840 5843 5845 5846 5848 5850 5851 5852 5853 5854 5855 5856 5855 5855 5854 5855 5856 5856
5724 5730 5737 5742 5747 5752 5758 5763 5768 5775 5780 5784 5789 5792 5797 5801 5805 5810 5814 5818 5821 5824 5828 5831 5833 5834 5836 5839 5842 5844 5846 5847 5848 5849 5851 5851 5851 5852 5852 5852 5851 5853 5854
5718 5722 5726 5727 5736 5743 5748 5754 5759 5766 5775 5775 5780 5785 5789 5792 5798 5802 5806 5811 5815 5818 5821 5824 5826 5829 5831 5833 5834 5838 5840 5843 5845 5846 5847 5848 5849 5848 5849 5850 5849 5848 5850
5707 5711 5717 5720 5724 5730 5737 5744 5751 5756 5763 5769 5773 5773 5779 5783 5788 5793 5798 5803 5805 5811 5815 5817 5820 5822 5824 5827 5830 5833 5835 5836 5838 5841 5842 5844 5843 5845 5844 5846 5847 5847 5846
5699 5704 5708 5712 5718 5722 5727 5733 5740 5745 5753 5759 5763 5766 5771 5776 5781 5785 5789 5792 5797 5802 5806 5809 5812 5816 5818 5820 5824 5826 5829 5831 5832 5835 5836 5838 5839 5840 5841 5842 5843 5844 5843
5689 5696 5700 5705 5709 5714 5718 5723 5729 5733 5742 5742 5750 5755 5759 5766 5771 5776 5780 5785 5788 5792 5796 5800 5803 5807 5811 5815 5819 5821 5823 5825 5826 5828 5830 5832 5835 5835 5837 5838 5839 5840 5841
5679 5685 5691 5696 5701 5706 5709 5715 5720 5725 5730 5736 5741 5746 5752 5758 5764 5769 5772 5777 5782 5787 5789 5791 5796 5801 5805 5808 5811 5814 5816 5818 5820 5822 5825 5826 5828 5830 5832 5834 5836 5835 5837
5668 5674 5680 5686 5691 5697 5703 5708 5714 5718 5724 5728 5733 5738 5743 5749 5755 5759 5765 5769 5773 5778 5781 5785 5789 5794 5797 5800 5803 5807 5809 5811 5813 5815 5817 5819 5821 5824 5827 5829 5831 5832 5832
5656 5662 5669 5674 5680 5687 5692 5697 5703 5709 5715 5721 5726 5731 5737 5741 5746 5751 5756 5761 5765 5769 5773 5778 5782 5785 5788 5792 5795 5798 5800 5804 5806 5808 5810 5813 5815 5818 5821 5823 5824 5826 5828
5645 5650 5657 5663 5669 5675 5681 5687 5692 5699 5706 5711 5717 5722 5727 5732 5736 5741 5747 5751 5755 5760 5764 5768 5772 5776 5779 5782 5786 5790 5793 5796 5798 5801 5803 5807 5809 5811 5815 5816 5818 5820 5821
5632 5639 5644 5650 5657 5663 5670 5675 5682 5688 5694 5699 5705 5711 5716 5721 5727 5731 5736 5741 5745 5749 5753 5757 5761 5765 5769 5772 5777 5780 5783 5787 5790 5793 5796 5799 5801 5804 5806 5808 5810 5811 5813
5620 5626 5631 5638 5644 5651 5657 5663 5670 5676 5682 5688 5694 5700 5705 5711 5716 5721 5726 5731 5735 5739 5743 5747 5751 5755 5758 5762 5765 5769 5773 5777 5781 5785 5788 5791 5792 5795 5797 5798 5801 5803 5805
5605 5611 5618 5625 5630 5637 5644 5651 5658 5663 5670 5676 5683 5688 5694 5699 5704 5710 5715 5720 5724 5729 5733 5737 5741 5745 5748 5752 5756 5760 5764 5767 5772 5775 5778 5782 5784 5786 5787 5789 5791 5794 5795